Regional Weather Roundup
Issued by NWS

Home | Current Version | Previous Version | Text Only | Print | Product List | Glossary Off
Versions: 1 2 3 4 5 6 7 8 9 10 11 12 13 14 15 16 17 18 19 20 21 22 23 24 25 26 27 28 29 30 31 32 33 34 35 36 37 38 39 40 41 42 43 44 45 46 47 48 49 50

978
ASUS43 KLMK 281010
RWRKY
KENTUCKY REGIONAL WEATHER ROUNDUP
NATIONAL WEATHER SERVICE LOUISVILLE KY
600 AM EDT TUE MAR 28 2017

NOTE "FAIR" INDICATES FEW OR NO CLOUDS BELOW 12,000 FEET
WITH NO SIGNIFICANT WEATHER AND/OR OBSTRUCTIONS TO VISIBILITY.

KYZ001>023-026-027-061>063-070>075-281100-
WESTERN AND SOUTH CENTRAL KENTUCKY

CITY           SKY/WX    TMP DP  RH WIND       PRES   REMARKS
PADUCAH        MOCLDY    54  50  86 CALM      29.93R
HENDERSON      CLOUDY    55  52  88 NW7       29.90R
OWENSBORO        N/A     55  54  96 NW6       29.91
HOPKINSVILLE   MOCLDY    54  54 100 W6        29.92R
BOWLING GREEN  CLOUDY    57  54  89 W7        29.90R
GLASGOW        CLOUDY   N/A N/A N/A W5        29.90R HAZE
$$

KYZ024-025-028>034-038-045-046-053-281100-
NORTH CENTRAL KENTUCKY

CITY           SKY/WX    TMP DP  RH WIND       PRES   REMARKS
LOUISVILLE/SDF CLOUDY    57  54  89 W9        29.88R
LOUISVILLE/LOU CLOUDY    57  54  89 W6        29.88R
FORT KNOX      CLOUDY    55  55 100 W5        29.87R
$$

KYZ035>037-039>044-047>052-055>060-089>105-281100-
NORTHEAST KENTUCKY

CITY           SKY/WX    TMP DP  RH WIND       PRES   REMARKS
LEXINGTON      MOCLDY    55  53  93 W6        29.87R
COVINGTON      LGT RAIN  55  55 100 SW3       29.85R FOG
FRANKFORT      CLOUDY    56  52  86 W5        29.86R
$$

KYZ054-064>069-076>088-106>120-281100-
SOUTHEAST KENTUCKY

CITY           SKY/WX    TMP DP  RH WIND       PRES   REMARKS
JACKSON        CLOUDY    56  53  90 SW6       29.87R
LONDON         CLOUDY    57  52  83 SW6       29.88R
SOMERSET       CLOUDY    54  54 100 SW5       29.90S
MIDDLESBORO    CLOUDY    54  54 100 CALM      29.90R
MONTICELLO     CLOUDY    57  55  93 W14       29.92R
$$





USA.gov is the U.S. government's official web portal to all federal, state and local government web resources and services.